Regional Weather Roundup
Issued by NWS Portland, ME

Current Version | Previous Version | Text Only | Print | Product List | Glossary Off
Versions: 1 2 3 4 5 6 7 8 9 10 11 12 13 14 15 16 17 18 19 20 21 22 23 24 25 26 27 28 29 30 31 32 33 34 35 36 37 38 39 40 41 42 43 44 45 46 47 48 49 50
558 ASUS41 KGYX 170005 RWRGYX WEATHER ROUNDUP FOR MAINE AND NEW HAMPSHIRE NATIONAL WEATHER SERVICE GRAY ME 700 PM EST TUE JAN 16 2018 MEZ002-005-006-010-012-015-018-020-021-024-026-027-029-170100- MAINE CITY SKY/WX TMP DP RH WIND PRES REMARKS PORTLAND CLOUDY 26 20 77 CALM 30.46S 6HR MIN TEMP: 24; 6HR MAX TEMP: 27; SANFORD MOCLDY 26 19 74 CALM 30.45R BAR HARBOR FAIR 18 13 80 CALM 30.48 WISCASSET MOCLDY 21 17 84 CALM 30.48R 6HR MIN TEMP: 21; 6HR MAX TEMP: 26; FRYEBURG FAIR 20 19 96 SW5 30.42S 6HR MIN TEMP: 20; 6HR MAX TEMP: 28; LEWISTONAUBURN FAIR 21 15 78 CALM 30.45R AUGUSTA MOCLDY 22 13 68 CALM 30.46R 6HR MIN TEMP: 22; 6HR MAX TEMP: 24; WATERVILLE MOCLDY 18 9 68 CALM 30.41S BANGOR MOCLDY 18 12 77 CALM 30.47S 6HR MIN TEMP: 18; 6HR MAX TEMP: 24; GREENVILLE NOT AVBL MILLINOCKET FAIR 9 8 96 CALM 30.44S 6HR MIN TEMP: 8; 6HR MAX TEMP: 20; HOULTON FAIR 0 -3 87 CALM 30.42S 6HR MIN TEMP: 0; 6HR MAX TEMP: 15; 6HR PCP: TRACE; PRESQUE ISLE FAIR 0 -5 79 CALM 30.43R 6HR MIN TEMP: 0; 6HR MAX TEMP: 16; 6HR PCP: TRACE; FRENCHVILLE FAIR 3 0 87 SE6 30.36R 6HR MIN TEMP: 3; 6HR MAX TEMP: 6; 6HR PCP: TRACE; CARIBOU FAIR 5 1 83 E3 30.41R 6HR MIN TEMP: 5; 6HR MAX TEMP: 13; $$ NHZ002-005-008-009-011-012-014-170100- NEW HAMPSHIRE CITY SKY/WX TMP DP RH WIND PRES REMARKS PORTSMOUTH CLOUDY 29 20 70 CALM 30.43F ROCHESTER CLOUDY 28 20 71 CALM 30.43R 6HR MIN TEMP: 27; 6HR MAX TEMP: 31; NASHUA MIX PCPN 31 25 78 CALM 30.45R MANCHESTER FLURRIES 30 24 78 SE5 30.42S 6HR MIN TEMP: 28; 6HR MAX TEMP: 32; 6HR PCP: TRACE; CONCORD CLOUDY 29 22 75 SE3 30.42S 6HR MIN TEMP: 26; 6HR MAX TEMP: 30; PLYMOUTH LGT SNOW 21 19 93 CALM 30.42F BERLIN LGT SNOW 20 18 92 CALM 30.36S FOG 6HR MIN TEMP: 20; 6HR MAX TEMP: 22; 6HR PCP: TRACE; WHITEFIELD CLOUDY 20 18 92 CALM 30.37S 6HR MIN TEMP: 19; 6HR MAX TEMP: 22; 6HR PCP: TRACE; JAFFREY LGT SNOW 28 26 92 CALM 30.38R FOG 6HR MIN TEMP: 28; 6HR MAX TEMP: 30; 6HR PCP: TRACE; KEENE LGT SNOW 27 25 92 CALM 30.41S FOG LEBANON LGT SNOW 27 24 89 CALM 30.40S FOG 6HR MIN TEMP: 27; 6HR MAX TEMP: 29; 6HR PCP: TRACE; MT WASHINGTON SNOW 7 7 100 W40 N/A VSB 1/16WCI -19 6HR MIN TEMP: 6; 6HR MAX TEMP: 8; 6HR PCP: 0.01; $$ VTZ005-007-008-170100- VERMONT CITY SKY/WX TMP DP RH WIND PRES REMARKS ST JOHNSBURY N/A 23 21 92 MISG 30.38S MONTPELIER CLOUDY 22 21 96 CALM 30.38F BURLINGTON CLOUDY 26 20 77 SW3 30.39S $$ MAZ007-012-024-CTZ003-RIZ002-NYZ038-NYZ072-170100- SOUTHERN NEW ENGLAND AND NY CITY SKY/WX TMP DP RH WIND PRES REMARKS BOSTON CLOUDY 32 27 81 SE5 30.46S WORCESTER CLOUDY 28 21 75 CALM 30.39S NANTUCKET CLOUDY 29 26 89 SE3 30.48S PROVIDENCE CLOUDY 33 31 92 SE6 30.47R HARTFORD CLOUDY 30 26 85 N3 30.43S ALBANY LGT SNOW 28 25 88 CALM 30.42R FOG NEW YORK CITY CLOUDY 32 28 85 NE9 30.41S $$ ANZ081-ANZ082-ANZ150-NHZ014-MEZ023>029-170100- COASTAL MARINE OBSERVATIONS STATION/POSITION TIME TEMP WIND PRES WAVE AIR SEA DIR/SP/G HT/PER (UTC) (F) (DEG/KT/KT) (MB) (FT/S) MOUNT DESERT ROC 2300 29 240/ 6/ 7 1032.4R MATINICUS ROCK 2300 29 330/ 6/ 7 1031.1R ISLE OF SHOALS 2300 32 200/ 5/ 7 1031.1R JEFFREYS LEDGE 2336 44 N/A 6/10 GEORGES BANK BUO 2250 39 53 1030.7 8/ 9 $$ .............KEY.............. WCI - WIND CHILL TC - TEMPERATURE IN CELSIUS VSB - VISIBILITY IN MILES HX - HEAT INDEX FAIR- INDICATES FEW OR NO CLOUDS BELOW 12,000 FT, WITH NO SIGNIFICANT WEATHER AND/OR OBSTRUCTIONS TO VISIBILITY.

USA.gov is the U.S. government's official web portal to all federal, state and local government web resources and services.